Weather History for Mobile, AL

Change the Weather History Date:

Friday, April 26, 2013

  Actual Average Record
Temperature  
Mean Temperature 67 °F 69 °F  
Max Temperature 80 °F 80 °F 89 °F (1989)
Min Temperature 53 °F 58 °F 46 °F (1992)
Degree Days  
Heating Degree Days 0 1  
Month to date heating degree days 60 58  
Since 1 July heating degree days 1546 1689  
Cooling Degree Days 2 5  
Month to date cooling degree days 65 82  
Year to date cooling degree days 109 137  
Growing Degree Days 16 (Base 50)    
Moisture  
Dew Point 47 °F    
Average Humidity 59    
Maximum Humidity 84    
Minimum Humidity 33    
Precipitation  
Precipitation 0.00 in 0.16 in 3.81 in (1964)
Month to date precipitation 5.10 4.19  
Year to date precipitation 20.08 21.10  
Sea Level Pressure  
Sea Level Pressure 30.26 in    
Wind  
Wind Speed 7 mph (ESE)    
Max Wind Speed 13 mph    
Max Gust Speed 22 mph    
Visibility 10 miles    
Events      
T = Trace of Precipitation, MM = Missing Value Source: NWS Daily Summary

Daily Weather History Graph

Daily Weather History Graph

Search for Another Location

Airport:

Trip Planner

Search our weather history database for the weather conditions in past years. The results will help you decide how hot, cold, wet, or windy it might be!

Date:

Astronomy

Apr. 26, 2013 Rise Set
Actual Time 6:13 AM CDT 7:28 PM CDT
Civil Twilight 5:48 AM CDT 7:53 PM CDT
Nautical Twilight 5:18 AM CDT 8:23 PM CDT
Astronomical Twilight 4:47 AM CDT 8:55 PM CDT
Moon 8:45 PM CDT (4/26) 6:44 AM CDT (4/26)
Length of Visible Light 14h 05m
Length of Day
13h 14m
Full, 99% of the Moon is Illuminated
Apr 26
Full
May 2
Last Quarter
May 9
New
May 17
First Quarter
May 24
Full

Hourly Weather History & Observations

Time (CDT) Temp. Dew Point Humidity Pressure Visibility Wind Dir Wind Speed Gust Speed Precip Events Conditions
12:56 AM 59.0 °F 42.1 °F 53% 30.26 in 10.0 mi NE 8.1 mph - N/A   Clear
1:56 AM 57.0 °F 42.1 °F 57% 30.25 in 10.0 mi NE 5.8 mph - N/A   Clear
2:56 AM 55.9 °F 42.1 °F 60% 30.23 in 10.0 mi NNE 5.8 mph - N/A   Clear
3:56 AM 55.0 °F 42.1 °F 62% 30.24 in 10.0 mi NE 4.6 mph - N/A   Clear
4:56 AM 54.0 °F 42.1 °F 64% 30.25 in 10.0 mi NE 4.6 mph - N/A   Clear
5:56 AM 53.1 °F 42.1 °F 66% 30.26 in 10.0 mi NE 5.8 mph - N/A   Clear
6:56 AM 55.0 °F 42.1 °F 62% 30.28 in 10.0 mi NE 4.6 mph - N/A   Partly Cloudy
7:56 AM 60.1 °F 39.9 °F 47% 30.29 in 10.0 mi ENE 9.2 mph - N/A   Partly Cloudy
8:56 AM 64.9 °F 39.9 °F 40% 30.30 in 10.0 mi East 11.5 mph - N/A   Partly Cloudy
9:56 AM 69.1 °F 39.0 °F 33% 30.30 in 10.0 mi ESE 11.5 mph - N/A   Partly Cloudy
10:56 AM 72.0 °F 41.0 °F 33% 30.31 in 10.0 mi ESE 6.9 mph - N/A   Mostly Cloudy
11:56 AM 73.0 °F 43.0 °F 34% 30.31 in 10.0 mi SE 5.8 mph - N/A   Overcast
12:56 PM 75.9 °F 45.0 °F 33% 30.29 in 10.0 mi SE 6.9 mph - N/A   Scattered Clouds
1:56 PM 79.0 °F 48.9 °F 35% 30.27 in 10.0 mi ESE 10.4 mph - N/A   Mostly Cloudy
2:56 PM 80.1 °F 51.1 °F 36% 30.25 in 10.0 mi ESE 8.1 mph - N/A   Partly Cloudy
3:56 PM 79.0 °F 51.1 °F 38% 30.24 in 10.0 mi South 10.4 mph 21.9 mph N/A   Partly Cloudy
4:56 PM 79.0 °F 48.0 °F 34% 30.23 in 10.0 mi SE 11.5 mph - N/A   Clear
5:56 PM 77.0 °F 53.1 °F 43% 30.24 in 10.0 mi South 9.2 mph - N/A   Partly Cloudy
6:56 PM 73.9 °F 55.0 °F 52% 30.23 in 10.0 mi SSE 6.9 mph - N/A   Partly Cloudy
7:56 PM 70.0 °F 55.0 °F 59% 30.22 in 10.0 mi SE 8.1 mph - N/A   Partly Cloudy
8:56 PM 69.1 °F 54.0 °F 58% 30.22 in 10.0 mi South 6.9 mph - N/A   Partly Cloudy
9:56 PM 64.9 °F 55.0 °F 70% 30.24 in 10.0 mi SSW 6.9 mph - N/A   Partly Cloudy
10:56 PM 64.0 °F 55.9 °F 75% 30.23 in 10.0 mi South 3.5 mph - N/A   Partly Cloudy
11:56 PM 61.0 °F 55.9 °F 83% 30.23 in 10.0 mi NW 3.5 mph - N/A   Clear